Location: Cutler
(25.6150°N, 80.3110°W)
Time: 13:37:07
(UTC-05:00)

Vanguard 1 - Pass Details

Date: 01 February 2018
Orbit: 650 x 3833 km, 34.2° (Epoch: 22 February)

Event Time Altitude Azimuth Distance (km) Brightness Sun altitude
Rises 19:07:01 0° 237° (WSW) 3,501 14.3 -14.2°
Reaches altitude 10° 19:09:51 10° 235° (SW) 2,319 13.1 -14.9°
Maximum altitude 19:14:47 66° 153° (SSE) 715 9.2 -16.0°
Enters shadow 19:16:53 29° 79° (ENE) 1,170 9.9 -16.4°
Drops below altitude 10° 19:19:10 10° 70° (ENE) 2,070 - -16.9°
Sets 19:21:34 0° 68° (ENE) 3,084 - -17.5°
